When you browse on this site, cookies collect data to enhance your experience and personalize the content and advertising you see.
Visit our Privacy Policy to learn more. By continuing to use the site, you agree to this use of cookies and data.
  • In Schweiz
  • Länderverzeichnis
  • Für 7 Tage
  • Wassertemperatur
  • Wetterkarte
  • Widgets
  • user-avatar
    Anmelden

    Stündliche Wetter Marakaibo

    Heute, 22 August, Donnerstag

    Zeit Temperatur Niederschläge Wind Luftdruck Luftfeuchtigkeit
    00:00 +29°C° 0 mm 4 m/S 753 mmHg 82%
    01:00 +29°C° 0 mm 4 m/S 753 mmHg 83%
    02:00 +29°C° 0 mm 4 m/S 753 mmHg 83%
    03:00 +28°C° 0 mm 3 m/S 753 mmHg 83%
    04:00 +28°C° 0 mm 2 m/S 753 mmHg 83%
    05:00 +28°C° 0 mm 2 m/S 753 mmHg 81%
    06:00 +29°C° 0 mm 2 m/S 753 mmHg 80%
    07:00 +29°C° 0 mm 1 m/S 753 mmHg 78%
    08:00 +31°C° 0 mm 2 m/S 753 mmHg 71%
    09:00 +34°C° 0 mm 2 m/S 753 mmHg 63%
    10:00 +35°C° 0 mm 3 m/S 753 mmHg 56%
    11:00 +36°C° 0 mm 3 m/S 752 mmHg 53%
    12:00 +37°C° 0 mm 3 m/S 752 mmHg 50%
    13:00 +38°C° 0 mm 2 m/S 751 mmHg 47%
    14:00 +37°C° 0 mm 2 m/S 750 mmHg 48%
    15:00 +37°C° 0 mm 2 m/S 750 mmHg 48%
    16:00 +37°C° 0 mm 3 m/S 750 mmHg 49%
    17:00 +35°C° 0.1 mm 3 m/S 750 mmHg 57%
    18:00 +33°C° 0.1 mm 4 m/S 751 mmHg 65%
    19:00 +32°C° 0.1 mm 4 m/S 751 mmHg 73%
    20:00 +30°C° 0 mm 4 m/S 752 mmHg 74%
    21:00 +30°C° 0 mm 4 m/S 752 mmHg 76%
    22:00 +30°C° 0 mm 5 m/S 753 mmHg 77%
    23:00 +30°C° 0.3 mm 4 m/S 753 mmHg 79%

    Morgen, 23 August, Freitag

    Zeit Temperatur Niederschläge Wind Luftdruck Luftfeuchtigkeit
    00:00 +29°C° 0.3 mm 4 m/S 752 mmHg 80%
    01:00 +29°C° 0.3 mm 4 m/S 752 mmHg 82%
    02:00 +29°C° 0.3 mm 4 m/S 752 mmHg 82%
    03:00 +29°C° 0.3 mm 3 m/S 752 mmHg 82%
    04:00 +29°C° 0.3 mm 3 m/S 752 mmHg 82%
    05:00 +29°C° 0.1 mm 2 m/S 752 mmHg 80%
    06:00 +29°C° 0.1 mm 2 m/S 752 mmHg 79%
    07:00 +29°C° 0.1 mm 2 m/S 753 mmHg 77%
    08:00 +31°C° 0 mm 2 m/S 753 mmHg 70%
    09:00 +33°C° 0 mm 1 m/S 753 mmHg 62%
    10:00 +35°C° 0 mm 1 m/S 753 mmHg 55%
    11:00 +37°C° 0 mm 2 m/S 752 mmHg 51%
    12:00 +38°C° 0 mm 2 m/S 751 mmHg 48%
    13:00 +39°C° 0 mm 2 m/S 751 mmHg 44%
    14:00 +38°C° 0.1 mm 2 m/S 750 mmHg 46%
    15:00 +37°C° 0.1 mm 2 m/S 750 mmHg 49%
    16:00 +36°C° 0.1 mm 2 m/S 749 mmHg 52%
    17:00 +34°C° 0.7 mm 3 m/S 750 mmHg 60%
    18:00 +33°C° 0.7 mm 3 m/S 750 mmHg 67%
    19:00 +30°C° 0.7 mm 3 m/S 751 mmHg 75%
    20:00 +29°C° 0.6 mm 3 m/S 751 mmHg 77%
    21:00 +29°C° 0.6 mm 2 m/S 752 mmHg 78%
    22:00 +29°C° 0.6 mm 2 m/S 752 mmHg 80%
    23:00 +29°C° 0 mm 2 m/S 752 mmHg 83%

    übermorgen, 24 August, Samstag

    Zeit Temperatur Niederschläge Wind Luftdruck Luftfeuchtigkeit
    00:00 +28°C° 0 mm 2 m/S 752 mmHg 85%
    01:00 +28°C° 0 mm 3 m/S 751 mmHg 88%
    02:00 +28°C° 0.4 mm 2 m/S 751 mmHg 88%
    03:00 +28°C° 0.4 mm 2 m/S 751 mmHg 89%
    04:00 +27°C° 0.4 mm 2 m/S 751 mmHg 89%
    05:00 +28°C° 0 mm 2 m/S 752 mmHg 86%
    06:00 +28°C° 0 mm 1 m/S 752 mmHg 83%
    07:00 +29°C° 0 mm 1 m/S 752 mmHg 80%
    08:00 +31°C° 0 mm 1 m/S 753 mmHg 72%
    09:00 +33°C° 0 mm 1 m/S 753 mmHg 63%
    10:00 +35°C° 0 mm 1 m/S 753 mmHg 55%
    11:00 +36°C° 0 mm 1 m/S 752 mmHg 52%
    12:00 +38°C° 0 mm 2 m/S 752 mmHg 48%
    13:00 +39°C° 0 mm 2 m/S 751 mmHg 44%
    14:00 +38°C° 0.1 mm 2 m/S 750 mmHg 47%
    15:00 +37°C° 0.1 mm 2 m/S 750 mmHg 50%
    16:00 +36°C° 0.1 mm 2 m/S 750 mmHg 53%
    17:00 +34°C° 0.4 mm 3 m/S 750 mmHg 59%
    18:00 +33°C° 0.4 mm 3 m/S 751 mmHg 66%
    19:00 +30°C° 0.4 mm 4 m/S 751 mmHg 73%
    20:00 +30°C° 0.1 mm 4 m/S 752 mmHg 75%
    21:00 +30°C° 0.1 mm 3 m/S 752 mmHg 77%
    22:00 +30°C° 0.1 mm 3 m/S 753 mmHg 80%
    23:00 +29°C° 0 mm 3 m/S 752 mmHg 81%

    25 August, Sonntag

    Zeit Temperatur Niederschläge Wind Luftdruck Luftfeuchtigkeit
    00:00 +29°C° 0 mm 3 m/S 752 mmHg 83%
    01:00 +29°C° 0 mm 3 m/S 751 mmHg 84%
    02:00 +28°C° 0.2 mm 2 m/S 751 mmHg 86%
    03:00 +28°C° 0.2 mm 2 m/S 751 mmHg 87%
    04:00 +28°C° 0.2 mm 2 m/S 751 mmHg 89%
    05:00 +28°C° 0.2 mm 2 m/S 751 mmHg 87%
    06:00 +28°C° 0.2 mm 2 m/S 752 mmHg 85%
    07:00 +28°C° 0.2 mm 2 m/S 752 mmHg 83%
    08:00 +30°C° 0.1 mm 2 m/S 752 mmHg 75%
    09:00 +32°C° 0.1 mm 2 m/S 752 mmHg 66%
    10:00 +35°C° 0.1 mm 2 m/S 753 mmHg 57%
    11:00 +36°C° 0 mm 2 m/S 752 mmHg 53%
    12:00 +37°C° 0 mm 2 m/S 751 mmHg 49%
    13:00 +38°C° 0 mm 2 m/S 750 mmHg 45%
    14:00 +38°C° 0.1 mm 2 m/S 750 mmHg 48%
    15:00 +37°C° 0.1 mm 2 m/S 749 mmHg 50%
    16:00 +36°C° 0.1 mm 3 m/S 749 mmHg 53%
    17:00 +34°C° 0.6 mm 3 m/S 749 mmHg 60%
    18:00 +31°C° 0.6 mm 3 m/S 750 mmHg 67%
    19:00 +30°C° 0.6 mm 3 m/S 750 mmHg 74%
    20:00 +30°C° 0.1 mm 4 m/S 751 mmHg 75%
    21:00 +30°C° 0.1 mm 4 m/S 751 mmHg 75%
    22:00 +30°C° 0.1 mm 4 m/S 752 mmHg 76%
    23:00 +29°C° 0 mm 4 m/S 751 mmHg 76%

    26 August, Montag

    Zeit Temperatur Niederschläge Wind Luftdruck Luftfeuchtigkeit
    00:00 +29°C° 0 mm 3 m/S 751 mmHg 76%
    01:00 +28°C° 0 mm 3 m/S 751 mmHg 76%
    02:00 +28°C° 0.2 mm 2 m/S 751 mmHg 78%
    03:00 +28°C° 0.2 mm 2 m/S 751 mmHg 81%
    04:00 +28°C° 0.2 mm 2 m/S 751 mmHg 83%
    05:00 +28°C° 0.1 mm 2 m/S 751 mmHg 81%
    06:00 +28°C° 0.1 mm 2 m/S 752 mmHg 79%
    07:00 +29°C° 0.1 mm 2 m/S 752 mmHg 77%
    08:00 +31°C° 0 mm 2 m/S 752 mmHg 71%
    09:00 +32°C° 0 mm 2 m/S 752 mmHg 65%
    10:00 +35°C° 0 mm 2 m/S 752 mmHg 58%
    11:00 +36°C° 0.1 mm 2 m/S 752 mmHg 55%
    12:00 +36°C° 0.1 mm 3 m/S 751 mmHg 52%
    13:00 +37°C° 0.1 mm 3 m/S 750 mmHg 49%
    14:00 +36°C° 0.2 mm 3 m/S 750 mmHg 50%
    15:00 +36°C° 0.2 mm 4 m/S 749 mmHg 52%
    16:00 +35°C° 0.2 mm 4 m/S 749 mmHg 53%
    17:00 +34°C° 0.1 mm 5 m/S 750 mmHg 59%
    18:00 +33°C° 0.1 mm 5 m/S 750 mmHg 66%
    19:00 +30°C° 0.1 mm 5 m/S 751 mmHg 73%
    20:00 +30°C° 0 mm 5 m/S 752 mmHg 70%
    21:00 +30°C° 0 mm 4 m/S 752 mmHg 68%
    22:00 +30°C° 0 mm 4 m/S 753 mmHg 66%
    23:00 +30°C° 0.1 mm 4 m/S 752 mmHg 67%

    27 August, Dienstag

    Zeit Temperatur Niederschläge Wind Luftdruck Luftfeuchtigkeit
    00:00 +30°C° 0.1 mm 4 m/S 752 mmHg 68%
    01:00 +29°C° 0.1 mm 3 m/S 752 mmHg 69%
    02:00 +29°C° 1 mm 3 m/S 752 mmHg 73%
    03:00 +28°C° 1 mm 3 m/S 752 mmHg 77%
    04:00 +27°C° 1 mm 2 m/S 752 mmHg 81%
    05:00 +27°C° 0.1 mm 2 m/S 753 mmHg 81%
    06:00 +27°C° 0.1 mm 2 m/S 753 mmHg 81%
    07:00 +28°C° 0.1 mm 2 m/S 754 mmHg 81%
    08:00 +29°C° 0 mm 2 m/S 754 mmHg 74%
    09:00 +31°C° 0 mm 1 m/S 754 mmHg 67%
    10:00 +33°C° 0 mm 1 m/S 754 mmHg 60%
    11:00 +34°C° 0 mm 2 m/S 753 mmHg 57%
    12:00 +35°C° 0 mm 2 m/S 753 mmHg 54%
    13:00 +36°C° 0 mm 2 m/S 752 mmHg 52%
    14:00 +35°C° 0.1 mm 3 m/S 751 mmHg 53%
    15:00 +35°C° 0.1 mm 4 m/S 751 mmHg 55%
    16:00 +35°C° 0.1 mm 4 m/S 751 mmHg 56%
    17:00 +33°C° 0.3 mm 5 m/S 751 mmHg 62%
    18:00 +32°C° 0.3 mm 5 m/S 752 mmHg 67%
    19:00 +30°C° 0.3 mm 5 m/S 752 mmHg 73%
    20:00 +30°C° 0.1 mm 5 m/S 753 mmHg 74%
    21:00 +29°C° 0.1 mm 5 m/S 753 mmHg 75%
    22:00 +29°C° 0.1 mm 4 m/S 754 mmHg 76%
    23:00 +29°C° 0.2 mm 4 m/S 753 mmHg 76%
    Mehr zeigen